Time,TemperatureF,DewpointF,PressureIn,WindDirection,WindDirectionDegrees,WindSpeedMPH,WindSpeedGustMPH,Humidity,HourlyPrecipIn,Conditions,Clouds,dailyrainin,SoftwareType,DateUTC
2013-08-30 00:04:00,68.5,67.0,29.97,ESE,118,0.0,0.0,95,0.00,,,0.00,weatherlink.com 1.10,2013-08-30 04:04:00,
2013-08-30 00:19:00,68.0,67.0,29.97,ESE,118,0.0,0.0,95,0.00,,,0.00,weatherlink.com 1.10,2013-08-30 04:19:00,
2013-08-30 00:34:00,67.9,67.0,29.97,ESE,118,0.0,0.0,96,0.00,,,0.00,weatherlink.com 1.10,2013-08-30 04:34:00,
2013-08-30 00:49:00,67.7,66.0,29.98,ESE,118,0.0,0.0,95,0.00,,,0.00,weatherlink.com 1.10,2013-08-30 04:49:00,
2013-08-30 01:04:00,67.4,66.0,29.97,ESE,118,0.0,0.0,95,0.00,,,0.00,weatherlink.com 1.10,2013-08-30 05:04:00,
2013-08-30 01:19:00,67.3,66.0,29.97,ESE,118,0.0,0.0,96,0.00,,,0.00,weatherlink.com 1.10,2013-08-30 05:19:00,
2013-08-30 01:34:00,67.2,66.0,29.97,ESE,118,0.0,0.0,96,0.00,,,0.00,weatherlink.com 1.10,2013-08-30 05:34:00,
2013-08-30 01:49:00,67.2,66.0,29.97,ESE,118,0.0,0.0,97,0.00,,,0.00,weatherlink.com 1.10,2013-08-30 05:49:00,
2013-08-30 02:05:00,66.7,66.0,29.97,ESE,118,0.0,0.0,96,0.00,,,0.00,weatherlink.com 1.10,2013-08-30 06:05:00,
2013-08-30 02:20:00,66.5,66.0,29.97,ESE,118,0.0,0.0,97,0.00,,,0.00,weatherlink.com 1.10,2013-08-30 06:20:00,
2013-08-30 02:35:00,66.3,66.0,29.97,ESE,118,0.0,0.0,97,0.00,,,0.00,weatherlink.com 1.10,2013-08-30 06:35:00,
2013-08-30 02:50:00,66.2,65.0,29.97,ESE,118,0.0,0.0,97,0.00,,,0.00,weatherlink.com 1.10,2013-08-30 06:50:00,
2013-08-30 03:06:00,65.9,65.0,29.96,ESE,118,0.0,0.0,97,0.00,,,0.00,weatherlink.com 1.10,2013-08-30 07:06:00,
2013-08-30 03:21:00,65.9,65.0,29.96,ESE,118,0.0,0.0,97,0.00,,,0.00,weatherlink.com 1.10,2013-08-30 07:21:00,
2013-08-30 03:36:00,65.6,65.0,29.97,ESE,118,0.0,0.0,97,0.00,,,0.00,weatherlink.com 1.10,2013-08-30 07:36:00,
2013-08-30 03:51:00,65.3,65.0,29.97,ESE,118,0.0,0.0,97,0.00,,,0.00,weatherlink.com 1.10,2013-08-30 07:51:00,
2013-08-30 04:07:00,65.0,64.0,29.97,ESE,118,0.0,0.0,97,0.00,,,0.00,weatherlink.com 1.10,2013-08-30 08:07:00,
2013-08-30 04:22:00,64.8,64.0,29.97,ESE,118,0.0,0.0,97,0.00,,,0.00,weatherlink.com 1.10,2013-08-30 08:22:00,
2013-08-30 04:37:00,64.8,64.0,29.97,ESE,118,0.0,0.0,97,0.00,,,0.00,weatherlink.com 1.10,2013-08-30 08:37:00,
2013-08-30 04:52:00,64.6,64.0,29.96,ESE,118,0.0,1.0,97,0.00,,,0.00,weatherlink.com 1.10,2013-08-30 08:52:00,
2013-08-30 05:09:00,64.3,64.0,29.96,ESE,118,0.0,0.0,97,0.00,,,0.00,weatherlink.com 1.10,2013-08-30 09:09:00,
2013-08-30 05:24:00,64.2,63.0,29.96,ESE,118,0.0,1.0,97,0.00,,,0.00,weatherlink.com 1.10,2013-08-30 09:24:00,
2013-08-30 05:39:00,64.0,63.0,29.96,ESE,118,0.0,0.0,97,0.00,,,0.00,weatherlink.com 1.10,2013-08-30 09:39:00,
2013-08-30 05:54:00,64.1,64.0,29.96,ESE,118,0.0,0.0,98,0.00,,,0.00,weatherlink.com 1.10,2013-08-30 09:54:00,
2013-08-30 06:09:00,64.0,64.0,29.96,ESE,118,0.0,0.0,98,0.00,,,0.00,weatherlink.com 1.10,2013-08-30 10:09:00,
2013-08-30 06:24:00,64.1,64.0,29.96,ESE,118,0.0,0.0,98,0.00,,,0.00,weatherlink.com 1.10,2013-08-30 10:24:00,
2013-08-30 06:39:00,64.0,64.0,29.96,ESE,118,0.0,0.0,98,0.00,,,0.00,weatherlink.com 1.10,2013-08-30 10:39:00,
2013-08-30 06:55:00,63.8,63.0,29.96,ESE,118,0.0,0.0,97,0.00,,,0.00,weatherlink.com 1.10,2013-08-30 10:55:00,
2013-08-30 07:10:00,63.7,63.0,29.96,ESE,118,0.0,0.0,98,0.00,,,0.00,weatherlink.com 1.10,2013-08-30 11:10:00,
2013-08-30 07:25:00,63.8,63.0,29.96,ESE,118,0.0,0.0,98,0.00,,,0.00,weatherlink.com 1.10,2013-08-30 11:25:00,
2013-08-30 07:41:00,64.1,64.0,29.96,ESE,118,0.0,0.0,98,0.00,,,0.00,weatherlink.com 1.10,2013-08-30 11:41:00,
2013-08-30 07:56:00,64.6,64.0,29.96,ESE,118,0.0,0.0,98,0.00,,,0.00,weatherlink.com 1.10,2013-08-30 11:56:00,
2013-08-30 08:11:00,65.7,65.0,29.96,ESE,118,0.0,0.0,99,0.00,,,0.00,weatherlink.com 1.10,2013-08-30 12:11:00,
2013-08-30 08:26:00,67.3,67.0,29.95,ESE,118,0.0,0.0,99,0.00,,,0.00,weatherlink.com 1.10,2013-08-30 12:26:00,
2013-08-30 08:42:00,68.5,68.0,29.96,ESE,118,2.0,4.0,99,0.00,,,0.00,weatherlink.com 1.10,2013-08-30 12:42:00,
2013-08-30 08:57:00,69.4,69.0,29.95,SE,140,1.0,4.0,99,0.00,,,0.00,weatherlink.com 1.10,2013-08-30 12:57:00,
2013-08-30 09:14:00,70.6,70.0,29.95,SW,223,5.0,7.0,98,0.00,,,0.00,weatherlink.com 1.10,2013-08-30 13:14:00,
2013-08-30 09:30:00,72.0,71.0,29.96,SW,227,1.0,6.0,96,0.00,,,0.00,weatherlink.com 1.10,2013-08-30 13:30:00,
2013-08-30 09:43:00,73.3,71.0,29.95,SSW,207,1.0,7.0,93,0.00,,,0.00,weatherlink.com 1.10,2013-08-30 13:43:00,
2013-08-30 09:59:00,75.0,72.0,29.95,SW,223,3.0,6.0,89,0.00,,,0.00,weatherlink.com 1.10,2013-08-30 13:59:00,
2013-08-30 10:14:00,76.5,72.0,29.95,SSW,202,3.0,8.0,87,0.00,,,0.00,weatherlink.com 1.10,2013-08-30 14:14:00,
2013-08-30 10:29:00,77.5,72.0,29.95,SW,231,4.0,10.0,83,0.00,,,0.00,weatherlink.com 1.10,2013-08-30 14:29:00,
2013-08-30 10:44:00,78.3,72.0,29.94,SW,219,6.0,11.0,82,0.00,,,0.00,weatherlink.com 1.10,2013-08-30 14:44:00,
2013-08-30 10:59:00,79.2,72.0,29.94,SSW,196,5.0,10.0,78,0.00,,,0.00,weatherlink.com 1.10,2013-08-30 14:59:00,
2013-08-30 11:14:00,79.6,72.0,29.93,South,184,7.0,11.0,77,0.00,,,0.00,weatherlink.com 1.10,2013-08-30 15:14:00,
2013-08-30 11:30:00,80.6,72.0,29.93,WSW,252,8.0,11.0,75,0.00,,,0.00,weatherlink.com 1.10,2013-08-30 15:30:00,
2013-08-30 11:46:00,81.3,72.0,29.93,SSW,194,7.0,10.0,74,0.00,,,0.00,weatherlink.com 1.10,2013-08-30 15:46:00,
2013-08-30 12:00:00,81.8,72.0,29.92,SSW,202,7.0,14.0,73,0.00,,,0.00,weatherlink.com 1.10,2013-08-30 16:00:00,
2013-08-30 12:16:00,82.6,72.0,29.92,West,264,2.0,11.0,70,0.00,,,0.00,weatherlink.com 1.10,2013-08-30 16:16:00,
2013-08-30 12:31:00,82.7,72.0,29.91,SSW,194,2.0,10.0,71,0.00,,,0.00,weatherlink.com 1.10,2013-08-30 16:31:00,
2013-08-30 12:46:00,82.9,73.0,29.91,SSW,192,1.0,10.0,72,0.00,,,0.00,weatherlink.com 1.10,2013-08-30 16:46:00,
2013-08-30 13:01:00,84.0,72.0,29.91,West,262,5.0,9.0,68,0.00,,,0.00,weatherlink.com 1.10,2013-08-30 17:01:00,
2013-08-30 13:17:00,84.3,73.0,29.90,West,259,5.0,10.0,68,0.00,,,0.00,weatherlink.com 1.10,2013-08-30 17:17:00,
2013-08-30 13:32:00,85.0,72.0,29.89,SSW,206,7.0,12.0,65,0.00,,,0.00,weatherlink.com 1.10,2013-08-30 17:32:00,
2013-08-30 13:47:00,84.8,72.0,29.89,West,273,6.0,12.0,65,0.00,,,0.00,weatherlink.com 1.10,2013-08-30 17:47:00,
2013-08-30 14:02:00,85.1,72.0,29.89,West,264,11.0,13.0,66,0.00,,,0.00,weatherlink.com 1.10,2013-08-30 18:02:00,
2013-08-30 14:19:00,85.8,72.0,29.89,West,268,4.0,10.0,63,0.00,,,0.00,weatherlink.com 1.10,2013-08-30 18:19:00,
2013-08-30 14:34:00,86.4,71.0,29.88,West,267,7.0,9.0,61,0.00,,,0.00,weatherlink.com 1.10,2013-08-30 18:34:00,
2013-08-30 14:49:00,86.4,71.0,29.88,SW,219,6.0,12.0,61,0.00,,,0.00,weatherlink.com 1.10,2013-08-30 18:49:00,
2013-08-30 15:03:00,86.7,73.0,29.87,SW,216,7.0,10.0,63,0.00,,,0.00,weatherlink.com 1.10,2013-08-30 19:03:00,
2013-08-30 15:19:00,87.1,71.0,29.87,SW,235,6.0,13.0,60,0.00,,,0.00,weatherlink.com 1.10,2013-08-30 19:19:00,
2013-08-30 15:34:00,87.7,72.0,29.86,SW,217,2.0,12.0,60,0.00,,,0.00,weatherlink.com 1.10,2013-08-30 19:34:00,
2013-08-30 15:49:00,88.2,72.0,29.86,WSW,238,5.0,11.0,59,0.00,,,0.00,weatherlink.com 1.10,2013-08-30 19:49:00,
2013-08-30 16:05:00,88.4,72.0,29.85,WSW,240,5.0,13.0,58,0.00,,,0.00,weatherlink.com 1.10,2013-08-30 20:05:00,
2013-08-30 16:20:00,88.6,72.0,29.84,West,279,5.0,10.0,58,0.00,,,0.00,weatherlink.com 1.10,2013-08-30 20:20:00,
2013-08-30 16:35:00,89.2,72.0,29.84,West,259,4.0,10.0,57,0.00,,,0.00,weatherlink.com 1.10,2013-08-30 20:35:00,
2013-08-30 16:51:00,89.3,72.0,29.83,SW,223,8.0,10.0,57,0.00,,,0.00,weatherlink.com 1.10,2013-08-30 20:51:00,
2013-08-30 17:06:00,89.4,73.0,29.83,West,261,7.0,10.0,58,0.00,,,0.00,weatherlink.com 1.10,2013-08-30 21:06:00,
2013-08-30 17:21:00,89.5,73.0,29.82,WSW,248,5.0,8.0,58,0.00,,,0.00,weatherlink.com 1.10,2013-08-30 21:21:00,
2013-08-30 17:36:00,89.6,73.0,29.82,SSW,207,7.0,9.0,58,0.00,,,0.00,weatherlink.com 1.10,2013-08-30 21:36:00,
2013-08-30 17:51:00,90.0,73.0,29.82,WSW,250,5.0,8.0,57,0.00,,,0.00,weatherlink.com 1.10,2013-08-30 21:51:00,
2013-08-30 18:07:00,89.5,73.0,29.81,South,186,2.0,9.0,59,0.00,,,0.00,weatherlink.com 1.10,2013-08-30 22:07:00,
2013-08-30 18:22:00,89.3,74.0,29.80,SW,227,5.0,7.0,61,0.00,,,0.00,weatherlink.com 1.10,2013-08-30 22:22:00,
2013-08-30 18:37:00,88.4,74.0,29.80,SW,225,4.0,8.0,62,0.00,,,0.00,weatherlink.com 1.10,2013-08-30 22:37:00,
2013-08-30 18:54:00,87.7,74.0,29.79,SW,216,2.0,7.0,64,0.00,,,0.00,weatherlink.com 1.10,2013-08-30 22:54:00,
2013-08-30 19:09:00,87.3,74.0,29.79,SW,225,2.0,5.0,65,0.00,,,0.00,weatherlink.com 1.10,2013-08-30 23:09:00,
2013-08-30 19:24:00,87.0,74.0,29.79,SW,225,1.0,3.0,66,0.00,,,0.00,weatherlink.com 1.10,2013-08-30 23:24:00,
2013-08-30 19:39:00,85.7,76.0,29.79,SW,225,0.0,1.0,72,0.00,,,0.00,weatherlink.com 1.10,2013-08-30 23:39:00,
2013-08-30 19:54:00,83.4,76.0,29.79,SW,225,0.0,2.0,78,0.00,,,0.00,weatherlink.com 1.10,2013-08-30 23:54:00,
2013-08-30 20:09:00,82.0,75.0,29.79,SW,225,0.0,2.0,80,0.00,,,0.00,weatherlink.com 1.10,2013-08-31 00:09:00,
2013-08-30 20:25:00,80.3,74.0,29.79,SW,225,0.0,3.0,81,0.00,,,0.00,weatherlink.com 1.10,2013-08-31 00:25:00,
2013-08-30 20:40:00,80.0,74.0,29.79,SW,225,0.0,2.0,83,0.00,,,0.00,weatherlink.com 1.10,2013-08-31 00:40:00,
2013-08-30 20:54:00,79.3,75.0,29.79,SW,225,0.0,0.0,85,0.00,,,0.00,weatherlink.com 1.10,2013-08-31 00:54:00,
2013-08-30 21:10:00,78.5,74.0,29.80,SW,225,1.0,2.0,85,0.00,,,0.00,weatherlink.com 1.10,2013-08-31 01:10:00,
2013-08-30 21:25:00,78.4,73.0,29.80,SW,225,1.0,1.0,84,0.00,,,0.00,weatherlink.com 1.10,2013-08-31 01:25:00,
2013-08-30 21:41:00,78.2,73.0,29.80,SW,225,0.0,0.0,85,0.00,,,0.00,weatherlink.com 1.10,2013-08-31 01:41:00,
2013-08-30 21:56:00,78.3,74.0,29.80,SW,225,0.0,2.0,86,0.00,,,0.00,weatherlink.com 1.10,2013-08-31 01:56:00,
2013-08-30 22:11:00,78.2,74.0,29.79,SW,225,0.0,2.0,86,0.00,,,0.00,weatherlink.com 1.10,2013-08-31 02:11:00,
2013-08-30 22:26:00,78.1,73.0,29.79,SW,225,0.0,2.0,84,0.00,,,0.00,weatherlink.com 1.10,2013-08-31 02:26:00,
2013-08-30 22:43:00,78.3,74.0,29.77,SW,225,0.0,3.0,85,0.00,,,0.00,weatherlink.com 1.10,2013-08-31 02:43:00,
2013-08-30 22:57:00,78.1,73.0,29.77,SW,225,4.0,4.0,85,0.00,,,0.00,weatherlink.com 1.10,2013-08-31 02:57:00,
2013-08-30 23:12:00,79.0,74.0,29.76,WSW,251,6.0,6.0,83,0.00,,,0.00,weatherlink.com 1.10,2013-08-31 03:12:00,
2013-08-30 23:27:00,79.6,74.0,29.76,SW,225,6.0,7.0,82,0.00,,,0.00,weatherlink.com 1.10,2013-08-31 03:27:00,
2013-08-30 23:44:00,80.0,74.0,29.74,South,181,5.0,8.0,83,0.00,,,0.00,weatherlink.com 1.10,2013-08-31 03:44:00,
2013-08-30 23:59:00,79.7,74.0,29.75,SW,221,4.0,11.0,83,0.00,,,0.00,weatherlink.com 1.10,2013-08-31 03:59:00,